Stanley, ID

12:10 PM MDT on October 20, 2017 (GMT -0600)
Stanley

Weather History for KSNT - May, 2014

Change the Weather History Date:

Monday, May 19, 2014

  Actual Average Record
Temperature  
Mean Temperature 42 °F 44 °F  
Max Temperature 56 °F 59 °F 78 °F (1919)
Min Temperature 28 °F 29 °F 14 °F (2003)
Degree Days  
Heating Degree Days 23 21  
Month to date heating degree days 444 449  
Since 1 July heating degree days 9724 10109  
Cooling Degree Days 0 0  
Month to date cooling degree days 0 0  
Year to date cooling degree days 0 0  
Moisture  
Dew Point 29 °F    
Average Humidity 65    
Maximum Humidity 100    
Minimum Humidity 29    
Precipitation  
Precipitation 0.00 in 0.05 in 0.56 in (2005)
Month to date precipitation 0.64 1.07  
Year to date precipitation 12.42 7.91  
Sea Level Pressure  
Sea Level Pressure 29.84 in    
Wind  
Wind Speed 4 mph (WNW)    
Max Wind Speed 15 mph    
Max Gust Speed 24 mph    
T = Trace of Precipitation, MM = Missing Value Source: NWS Daily Summary

Daily Weather History Graph

Daily Weather History Graph

Search for Another Location

Airport or City:

Trip Planner

Search our weather history database for the weather conditions in past years. The results will help you decide how hot, cold, wet, or windy it might be!

Date:

Astronomy

May. 19, 2014 Rise Set
Actual Time 6:08 AM MDT 9:04 PM MDT
Civil Twilight 5:34 AM MDT 9:38 PM MDT
Nautical Twilight 4:51 AM MDT 10:21 PM MDT
Astronomical Twilight 4:00 AM MDT 11:13 PM MDT
Moon 12:51 AM MDT (5/19) 11:14 AM MDT (5/19)
Length of Visible Light 16h 03m
Length of Day
14h 55m
Waning Gibbous, 70% of the Moon is Illuminated
May 19
Waning Gibbous
May 21
Last Quarter
May 28
New
Jun 5
First Quarter
Jun 12
Full

Hourly Weather History & Observations

Time (MDT) Temp. Windchill Dew Point Humidity Pressure Visibility Wind Dir Wind Speed Gust Speed Precip Events Conditions
12:51 AM 28.9 °F 23.9 °F 28.0 °F 96% 29.83 in - South 4.6 mph - N/A   Unknown
1:51 AM 30.9 °F 27.5 °F 30.0 °F 96% 29.83 in - ESE 3.5 mph - N/A   Unknown
2:51 AM 33.1 °F 30.0 °F 32.0 °F 96% 29.80 in - SE 3.5 mph - N/A   Unknown
3:51 AM 33.1 °F - 30.9 °F 92% 29.80 in - Calm Calm - N/A   Unknown
4:51 AM 32.0 °F 28.7 °F 30.9 °F 96% 29.80 in - South 3.5 mph - N/A   Unknown
5:51 AM 32.0 °F 28.7 °F 30.0 °F 92% 29.86 in - SE 3.5 mph - N/A   Unknown
8:51 AM 34.0 °F 31.0 °F 30.0 °F 85% 29.88 in - Variable 3.5 mph - N/A   Unknown
9:51 AM 35.1 °F 32.2 °F 30.0 °F 82% 29.89 in - West 3.5 mph - N/A   Unknown
10:51 AM 41.0 °F 36.4 °F 32.0 °F 70% 29.88 in - North 6.9 mph - N/A   Unknown
11:51 AM 46.9 °F - 28.9 °F 50% 29.84 in - Variable 4.6 mph - N/A   Unknown
12:51 PM 48.9 °F - 27.0 °F 43% 29.84 in - North 4.6 mph - N/A   Unknown
1:51 PM 48.9 °F - 28.9 °F 46% 29.84 in - Variable 6.9 mph - N/A   Unknown
2:51 PM 50.0 °F - 23.0 °F 35% 29.81 in - North 6.9 mph - N/A   Unknown
3:51 PM 50.0 °F - 30.9 °F 48% 29.82 in - North 11.5 mph 20.7 mph N/A   Unknown
4:51 PM 50.0 °F - 27.0 °F 41% 29.82 in - NW 9.2 mph 17.3 mph N/A   Unknown
5:51 PM 54.0 °F - 23.0 °F 30% 29.81 in - Calm Calm - N/A   Unknown
6:51 PM 53.1 °F - 27.0 °F 37% 29.81 in - NW 8.1 mph - N/A   Unknown
7:51 PM 51.1 °F - 28.0 °F 41% 29.83 in - NNW 5.8 mph - N/A   Unknown
8:51 PM 45.0 °F - 28.9 °F 53% 29.86 in - Calm Calm - N/A   Unknown
9:51 PM 35.1 °F 32.2 °F 28.0 °F 76% 29.92 in - SSW 3.5 mph - N/A   Unknown
10:51 PM 35.1 °F 32.2 °F 28.0 °F 76% 29.91 in - South 3.5 mph - N/A   Unknown
11:51 PM 33.1 °F - 27.0 °F 78% 29.90 in - Calm Calm - N/A   Unknown